This is the latest recevied weather packets stored in our database for station/object SP6PGH-13. If no packets are shown the sender has not sent any weather packets the latest 10 day(s).
| Time | Temp. | Humidity | Pressure | Rain* | Wind** | Luminosity | Snow |
|---|---|---|---|---|---|---|---|
| 1787924675 | 28.33° C | 44% | 998.6 hPa | - | - | 247 W/m² | - |
| 1787923775 | 28.89° C | 46% | 998.7 hPa | - | - | 250 W/m² | - |
| 1787922874 | 28.89° C | 44% | 998.6 hPa | - | - | 357 W/m² | - |
| 1787921973 | 28.89° C | 44% | 998.8 hPa | - | - | 421 W/m² | - |
| 1787921072 | 28.89° C | 44% | 998.7 hPa | - | - | 537 W/m² | - |
| 1787920171 | 28.89° C | 45% | 998.6 hPa | - | - | 507 W/m² | - |
| 1787919270 | 28.89° C | 45% | 998.8 hPa | - | - | 680 W/m² | - |
| 1787918369 | 27.78° C | 45% | 999.1 hPa | - | - | 430 W/m² | - |
| 1787917468 | 27.78° C | 46% | 999.2 hPa | - | - | 593 W/m² | - |
| 1787916567 | 27.78° C | 45% | 999.2 hPa | - | - | 579 W/m² | - |
| 1787915666 | 27.22° C | 45% | 999.6 hPa | - | - | 619 W/m² | - |
| 1787914765 | 26.67° C | 48% | 999.5 hPa | - | - | 551 W/m² | - |
| 1787913864 | 26.11° C | 48% | 999.8 hPa | - | - | 675 W/m² | - |
| 1787912963 | 25.56° C | 49% | 999.8 hPa | - | - | 323 W/m² | - |
| 1787912062 | 26.11° C | 48% | 1000 hPa | - | - | 360 W/m² | - |
| 1787911161 | 25.56° C | 49% | 1000.6 hPa | - | - | 619 W/m² | - |
| 1787910260 | 25.56° C | 49% | 1000.8 hPa | - | - | 470 W/m² | - |
| 1787909359 | 24.44° C | 53% | 1000.8 hPa | - | - | 404 W/m² | - |
| 1787908458 | 23.89° C | 53% | 1001.2 hPa | - | - | 457 W/m² | - |
| 1787907556 | 24.44° C | 51% | 1001.4 hPa | - | - | 452 W/m² | - |
| 1787906656 | 23.33° C | 53% | 1001.4 hPa | - | - | 445 W/m² | - |
| 1787905755 | 23.33° C | 53% | 1001.8 hPa | - | - | 469 W/m² | - |
| 1787904854 | 22.78° C | 52% | 1002 hPa | - | - | 407 W/m² | - |
| 1787903953 | 22.22° C | 55% | 1002.1 hPa | - | - | 365 W/m² | - |
| 1787903052 | 22.22° C | 56% | 1002.2 hPa | - | - | 324 W/m² | - |
* Rain since midnight (hover to see other rain measurements)
** Current wind speed in m/s (hover to see current wind gust speed)